#timestamp,LO_Frequency,Hit,StdDev 
1622034015.6,286047000.0,N
1622034035.5,286047004.0,N
1622034055.3,286047004.0,N
1622034075.1,286047002.4,N
1622034095.9,286047001.9,N
1622034115.7,286047000.2,N
1622034135.5,286047001.8,N
1622034155.4,286047003.9,N
1622034175.2,286047004.1,N
1622034195.1,286047005.7,N
1622034196.0,286047005.7,N
1622034215.8,286047003.8,N
1622034235.6,286047003.4,N
1622034255.5,286047003.8,N
1622034275.3,286047003.8,N
1622034295.1,286047001.7,N
1622034315.9,286047002.3,N
1622034335.7,286047002.7,N
1622034355.6,286047000.3,N
1622034375.4,286047000.1,N
1622034395.2,286047002.6,N
1622034415.1,286047002.6,N
1622034416.0,286047002.6,N
1622034435.8,286046999.8,N
1622034455.6,286047002.3,N
1622034475.5,286047001.4,N
1622034495.3,286047002.5,N
1622034515.2,286047002.2,N
1622034535.9,286046999.7,N
1622034555.7,286047000.7,N
1622034575.6,286047000.5,N
1622034595.4,286047002.7,N
1622034615.2,286047002.4,N
1622034635.1,286047001.8,N
1622034636.0,286047001.8,N
1622034655.8,286047000.3,N
1622034675.7,286047000.4,N
1622034695.5,286046999.3,N
1622034715.3,286047000.7,N
1622034735.2,286046996.9,N
1622034755.0,286046996.8,N
1622034755.9,286046996.8,N
1622034775.8,286047002.5,N
1622034795.6,286047000.6,N
1622034815.4,286046999.8,N
1622034835.3,286047004.0,N
1622034855.1,286046999.9,N
1622034875.8,286046999.9,N
1622034895.7,286047002.5,N
1622034915.5,286047002.4,N
1622034935.4,286047000.1,N
1622034955.2,286047003.7,N
1622034975.0,286047001.8,N
1622034975.9,286047001.8,N
1622034995.8,286047002.1,N
1622035015.6,286046999.9,N
1622035035.5,286047001.9,N
1622035055.3,286047001.6,N
1622035075.1,286047006.0,Y
1622035095.9,286047005.9,P
1622035115.7,286047003.0,N
1622035135.5,286047004.0,N
1622035155.4,286047004.1,N
1622035175.2,286047001.3,N
1622035195.1,286047002.1,N
1622035196.0,286047002.1,N
1622035215.8,286047000.5,N
1622035235.6,286047002.1,N
1622035255.5,286047001.3,N
1622035275.3,286047004.4,N
1622035295.1,286047002.2,N
1622035315.9,286047003.7,N
1622035335.7,286047001.8,N
1622035355.6,286047002.1,N
1622035375.4,286047000.5,N
1622035395.2,286047000.7,N
1622035415.1,286047000.6,N
1622035416.0,286047000.6,N
1622035435.8,286047002.2,N
1622035455.6,286047003.2,N
1622035475.5,286047004.0,N
1622035495.3,286047001.9,N
1622035515.2,286047003.9,N
1622035535.9,286047004.1,N
1622035555.7,286047002.1,N
1622035575.6,286047000.6,N
1622035595.4,286047000.5,N
1622035615.2,286047001.9,N
1622035635.1,286047002.0,N
1622035636.0,286047002.0,N
1622035655.8,286047003.4,N
1622035675.7,286047004.2,Y
1622035695.5,286047001.1,P
1622035715.3,286046998.5,N
1622035735.2,286047001.0,N
1622035755.0,286047000.3,N
1622035755.9,286047000.3,N
1622035775.7,286047000.3,N
1622035795.6,286047001.0,N
1622035815.4,286047002.8,N
1622035835.3,286047002.2,N
1622035855.1,286047002.2,N
1622035856.0,286047002.2,N
1622035875.8,286047001.3,N
1622035895.7,286047004.3,Y
1622035915.5,286047002.8,P
1622035935.4,286046999.7,N
1622035955.2,286047001.0,N
1622035975.0,286047001.2,N
1622035975.9,286047001.2,N
1622035995.8,286047001.1,N
1622036015.6,286047001.2,N
1622036035.4,286047000.5,N
1622036055.3,286047000.1,N
1622036075.1,286047002.4,Y
1622036095.9,286047001.0,P
1622036115.7,286046999.9,P
1622036135.5,286046999.4,N
1622036155.4,286047001.2,N
1622036175.2,286046996.5,Y
1622036195.0,286046998.0,P
1622036195.9,286046998.0,N
1622036215.8,286046995.4,P
1622036235.6,286046996.2,N
1622036255.5,286046997.3,N
1622036275.3,286046997.2,N
1622036295.1,286046996.8,N
1622036315.9,286046997.3,N
1622036335.7,286046996.8,N
1622036355.5,286046998.8,N
1622036375.4,286046998.8,N
1622036395.2,286046997.3,N
1622036415.0,286046994.9,Y
1622036416.0,286046994.9,P
1622036435.8,286046997.0,N
1622036455.6,286046997.0,N
1622036475.5,286046999.5,N
1622036495.3,286046999.1,N
1622036515.1,286046999.5,N
1622036535.9,286046999.2,N
1622036555.7,286047001.1,N
1622036575.6,286046999.0,N
1622036595.4,286046996.5,N
1622036615.3,286046999.2,N
1622036635.1,286046996.6,N
1622036636.0,286046996.6,N
1622036655.8,286046996.9,N
1622036675.7,286046997.4,N
1622036695.5,286046997.8,N
1622036715.3,286046998.0,N
1622036735.2,286046995.7,N
1622036755.0,286046993.3,Y
1622036755.9,286046993.3,P
1622036775.8,286046997.4,N
1622036795.8,286046994.9,N
1622036815.6,286046995.9,N
1622036835.4,286046995.0,Y
1622036855.3,286046998.3,P
1622036875.1,286047000.7,N
1622036895.9,286047000.8,N
1622036915.7,286046998.9,N
1622036935.5,286046998.5,N
1622036955.4,286046999.0,N
1622036975.2,286046996.6,N
1622036995.0,286046997.2,N
1622036995.9,286046997.2,N
1622037015.8,286046996.6,N
1622037035.7,286046999.2,N
1622037055.5,286046999.1,N
1622037075.3,286046996.8,N
1622037095.2,286046997.2,N
1622037115.0,286046997.0,N
1622037115.9,286046997.0,N
1622037135.8,286046997.4,N
1622037155.6,286046997.8,N
1622037175.4,286046995.2,Y
1622037195.3,286046998.8,P
1622037215.1,286046998.6,P
1622037235.9,286046998.2,P
1622037255.7,286046997.3,Y
1622037275.5,286046997.4,P
1622037295.4,286046996.7,P
1622037315.2,286046997.4,P
1622037335.0,286046996.8,Y
1622037336.0,286046996.8,P
1622037355.8,286047002.5,P
1622037375.6,286047002.6,N
1622037395.5,286047002.6,N
1622037415.3,286047002.0,N
1622037435.1,286047002.6,N
1622037455.9,286047001.8,N
1622037475.7,286047000.1,N
1622037495.6,286047000.0,N
1622037515.4,286047002.3,N
1622037535.2,286047001.5,N
1622037555.1,286046999.9,N
1622037556.0,286046999.9,N
1622037575.8,286046999.9,N
1622037595.7,286047001.2,N
